Location: Kikino
(54.4440°N, 112.0940°W)
Time: 07:09:21
(UTC+00:00)

Transit 2A Rocket - Pass Details

Date: 28 May 2024
Orbit: 583 x 910 km, 66.7° (Epoch: 24 June)

Event Time Altitude Azimuth Distance (km) Brightness Sun altitude
Exits shadow 09:10:55 - 166° (SSE) 2,339 7.0 -10.7°
Reaches altitude 10° 09:11:31 10° 162° (SSE) 2,158 6.9 -10.7°
Maximum altitude 09:15:23 24° 110° (ESE) 1,519 6.6 -10.4°
Drops below altitude 10° 09:19:33 10° 59° (ENE) 2,344 8.5 -10.2°
Sets 09:22:29 0° 46° (NE) 3,339 9.9 -10.0°
